Antigo, WI

1:36 PM CDT on June 28, 2017 (GMT -0500)
Langlade County

Weather History for KAIG - January, 2013

Change the Weather History Date:

Sunday, January 27, 2013

  Actual Average Record
Temperature  
Mean Temperature 22 °F -  
Max Temperature 29 °F 18 °F 46 °F (2002)
Min Temperature 16 °F -2 °F -24 °F (1950)
Degree Days  
Heating Degree Days 42    
Moisture  
Dew Point 18 °F    
Average Humidity 84    
Maximum Humidity 99    
Minimum Humidity 71    
Precipitation  
Precipitation 0.02 in - - ()
Sea Level Pressure  
Sea Level Pressure 30.07 in    
Wind  
Wind Speed 10 mph (SE)    
Max Wind Speed 15 mph    
Max Gust Speed 22 mph    
Visibility 6 miles    
Events Snow    
Averages and records for this station are not official NWS values.
T = Trace of Precipitation, MM = Missing Value Source: NWS Daily Summary

Daily Weather History Graph

Daily Weather History Graph

Search for Another Location

Airport or City:

Trip Planner

Search our weather history database for the weather conditions in past years. The results will help you decide how hot, cold, wet, or windy it might be!

Date:

Astronomy

Jan. 27, 2013 Rise Set
Actual Time 7:21 AM CST 4:57 PM CST
Civil Twilight 6:50 AM CST 5:29 PM CST
Nautical Twilight 6:14 AM CST 6:04 PM CST
Astronomical Twilight 5:39 AM CST 6:39 PM CST
Moon 5:56 PM CST (1/27) 7:10 AM CST (1/27)
Length of Visible Light 10h 39m
Length of Day
9h 35m
Full, 100% of the Moon is Illuminated
Jan 27
Full
Feb 3
Last Quarter
Feb 10
New
Feb 17
First Quarter
Feb 25
Full

Hourly Weather History & Observations

Time (CST) Temp. Windchill Dew Point Humidity Pressure Visibility Wind Dir Wind Speed Gust Speed Precip Events Conditions
12:15 AM 17.1 °F 4.3 °F 10.0 °F 74% 30.22 in 10.0 mi South 11.5 mph - N/A   Overcast
12:35 AM 17.1 °F 5.8 °F 10.2 °F 75% 30.22 in 10.0 mi SSE 9.2 mph - N/A   Overcast
12:55 AM 17.1 °F 5.8 °F 10.6 °F 76% 30.22 in 10.0 mi SSE 9.2 mph - N/A   Overcast
1:15 AM 17.1 °F 5.8 °F 10.9 °F 77% 30.21 in 10.0 mi SSE 9.2 mph - N/A   Overcast
1:35 AM 17.2 °F 5.2 °F 10.9 °F 76% 30.21 in 10.0 mi SSE 10.4 mph - N/A   Overcast
1:55 AM 17.2 °F 6.0 °F 11.1 °F 77% 30.22 in 10.0 mi SSE 9.2 mph - N/A   Overcast
2:15 AM 17.4 °F 5.4 °F 11.3 °F 77% 30.22 in 10.0 mi SSE 10.4 mph - N/A   Overcast
2:35 AM 17.4 °F 6.2 °F 11.1 °F 76% 30.21 in 10.0 mi South 9.2 mph - N/A   Overcast
2:55 AM 17.6 °F 6.4 °F 11.5 °F 77% 30.21 in 10.0 mi South 9.2 mph - N/A   Overcast
3:15 AM 17.6 °F 6.4 °F 11.5 °F 77% 30.20 in 10.0 mi South 9.2 mph - N/A   Overcast
3:35 AM 17.8 °F 5.9 °F 11.7 °F 77% 30.20 in 10.0 mi South 10.4 mph - N/A   Overcast
3:55 AM 17.6 °F 7.3 °F 11.7 °F 78% 30.20 in 10.0 mi South 8.1 mph - N/A   Overcast
4:15 AM 16.5 °F 6.0 °F 10.9 °F 79% 30.18 in 10.0 mi SSE 8.1 mph - N/A   Mostly Cloudy
4:35 AM 16.3 °F 5.7 °F 11.3 °F 81% 30.17 in 10.0 mi SSE 8.1 mph - N/A   Mostly Cloudy
4:55 AM 17.2 °F 8.9 °F 12.0 °F 80% 30.17 in 10.0 mi SSE 5.8 mph - N/A   Overcast
5:15 AM 17.6 °F 7.3 °F 12.2 °F 79% 30.17 in 10.0 mi SSE 8.1 mph - N/A   Overcast
5:35 AM 17.6 °F 7.3 °F 12.2 °F 79% 30.17 in 10.0 mi SSE 8.1 mph - N/A   Overcast
5:55 AM 18.0 °F 7.7 °F 12.6 °F 79% 30.17 in 10.0 mi SE 8.1 mph - N/A   Overcast
6:15 AM 18.3 °F 9.1 °F 12.6 °F 78% 30.16 in 10.0 mi SE 6.9 mph - N/A   Overcast
6:35 AM 18.3 °F 8.2 °F 12.7 °F 79% 30.16 in 10.0 mi SSE 8.1 mph - N/A   Overcast
6:55 AM 18.5 °F 8.4 °F 12.9 °F 79% 30.16 in 10.0 mi SE 8.1 mph - N/A   Overcast
7:15 AM 18.5 °F 8.4 °F 12.9 °F 79% 30.16 in 10.0 mi SSE 8.1 mph - N/A   Overcast
7:35 AM 18.5 °F 8.4 °F 13.1 °F 79% 30.16 in 10.0 mi SSE 8.1 mph - N/A   Overcast
7:55 AM 18.7 °F 8.6 °F 13.1 °F 79% 30.16 in 10.0 mi SSE 8.1 mph - N/A   Overcast
8:15 AM 19.2 °F 8.4 °F 13.3 °F 78% 30.16 in 10.0 mi SSE 9.2 mph - N/A   Overcast
8:35 AM 19.4 °F 7.2 °F 13.6 °F 78% 30.16 in 10.0 mi SSE 11.5 mph - N/A   Overcast
8:55 AM 19.9 °F 10.1 °F 14.0 °F 78% 30.16 in 10.0 mi SSE 8.1 mph - N/A   Scattered Clouds
9:15 AM 20.7 °F 10.2 °F 14.0 °F 75% 30.16 in 10.0 mi SSE 9.2 mph - N/A   Scattered Clouds
9:35 AM 21.2 °F 10.1 °F 14.0 °F 74% 30.16 in 10.0 mi South 10.4 mph - N/A   Scattered Clouds
9:55 AM 22.1 °F 12.0 °F 14.7 °F 73% 30.16 in 10.0 mi SSE 9.2 mph - N/A   Mostly Cloudy
10:15 AM 22.8 °F 12.2 °F 15.1 °F 72% 30.15 in 10.0 mi South 10.4 mph - N/A   Mostly Cloudy
10:35 AM 23.0 °F 13.1 °F 15.3 °F 72% 30.15 in 10.0 mi SSE 9.2 mph - N/A   Scattered Clouds
10:55 AM 23.9 °F 14.2 °F 16.0 °F 72% 30.14 in 10.0 mi SSE 9.2 mph - N/A   Scattered Clouds
11:15 AM 23.7 °F 13.3 °F 15.6 °F 71% 30.12 in 10.0 mi SSE 10.4 mph - N/A   Scattered Clouds
11:35 AM 24.3 °F 13.9 °F 16.2 °F 71% 30.11 in 10.0 mi SSE 10.4 mph - N/A   Clear
11:55 AM 24.8 °F 14.0 °F 16.5 °F 71% 30.10 in 10.0 mi SSE 11.5 mph - N/A   Scattered Clouds
12:15 PM 25.2 °F 15.1 °F 17.1 °F 71% 30.09 in 10.0 mi SSE 10.4 mph - N/A   Scattered Clouds
12:35 PM 25.5 °F 15.5 °F 17.4 °F 71% 30.10 in 10.0 mi South 10.4 mph - N/A   Clear
12:55 PM 25.7 °F 17.1 °F 17.6 °F 71% 30.08 in 10.0 mi SSE 8.1 mph - N/A   Scattered Clouds
1:15 PM 26.1 °F 16.2 °F 18.1 °F 72% 30.08 in 10.0 mi SSE 10.4 mph - N/A   Mostly Cloudy
1:35 PM 25.7 °F 15.1 °F 18.0 °F 73% 30.07 in 7.0 mi SSE 11.5 mph - N/A   Overcast
1:55 PM 24.8 °F 14.6 °F 20.7 °F 84% 30.06 in 4.0 mi SE 10.4 mph - N/A Snow Light Snow
2:15 PM 24.8 °F 14.6 °F 21.0 °F 86% 30.05 in 5.0 mi SE 10.4 mph - N/A   Overcast
2:35 PM 25.2 °F 15.1 °F 21.0 °F 84% 30.05 in 3.0 mi SE 10.4 mph - N/A Snow Light Snow
2:55 PM 25.2 °F 15.1 °F 22.1 °F 88% 30.05 in 1.2 mi SSE 10.4 mph - N/A Snow Light Snow
3:15 PM 24.8 °F 15.3 °F 22.6 °F 91% 30.04 in 1.0 mi SE 9.2 mph - N/A Snow Light Snow
3:35 PM 24.8 °F 14.6 °F 22.8 °F 92% 30.04 in 0.8 mi SE 10.4 mph - N/A Snow Light Snow
3:55 PM 24.6 °F 14.4 °F 23.0 °F 94% 30.03 in 0.5 mi SE 10.4 mph - N/A Snow Light Snow
4:15 PM 24.6 °F 14.4 °F 22.8 °F 93% 30.02 in 1.0 mi SE 10.4 mph - N/A Snow Light Snow
4:35 PM 24.4 °F 14.2 °F 22.8 °F 94% 30.02 in 0.8 mi SE 10.4 mph - 0.01 in Snow Light Snow
4:55 PM 24.6 °F 13.8 °F 23.0 °F 94% 30.00 in 0.8 mi ESE 11.5 mph - 0.01 in Snow Light Snow
5:15 PM 24.8 °F 12.9 °F 23.4 °F 94% 29.98 in 1.0 mi ESE 13.8 mph - N/A Snow Snow
5:35 PM 24.8 °F 13.4 °F 23.4 °F 94% 29.97 in 1.0 mi ESE 12.7 mph - N/A Snow Snow
5:55 PM 25.2 °F 12.9 °F 23.5 °F 94% 29.96 in 1.5 mi SE 15.0 mph - N/A Snow Light Snow
6:15 PM 25.2 °F 13.3 °F 23.9 °F 95% 29.94 in 0.8 mi ESE 13.8 mph - 0.01 in Snow Snow
6:35 PM 25.3 °F 13.1 °F 23.9 °F 94% 29.93 in 0.8 mi ESE 15.0 mph 21.9 mph 0.01 in Snow Snow
6:55 PM 25.7 °F 13.5 °F 24.1 °F 94% 29.93 in 1.8 mi ESE 15.0 mph - 0.01 in Snow Light Snow
7:15 PM 25.9 °F 13.8 °F 24.4 °F 94% 29.93 in 1.8 mi SE 15.0 mph - N/A Snow Light Snow
7:35 PM 26.1 °F 15.0 °F 24.8 °F 95% 29.92 in 1.0 mi SE 12.7 mph - N/A Snow Light Snow
7:55 PM 26.4 °F 14.5 °F 25.2 °F 95% 29.91 in 1.0 mi SE 15.0 mph - N/A Snow Snow
8:15 PM 26.4 °F 14.5 °F 25.2 °F 95% 29.90 in 1.5 mi SE 15.0 mph - N/A Snow Light Snow
8:35 PM 26.4 °F 14.5 °F 25.3 °F 96% 29.88 in 1.2 mi SE 15.0 mph - N/A Snow Light Snow
8:55 PM 26.6 °F 14.7 °F 25.5 °F 96% 29.87 in 1.5 mi ESE 15.0 mph - N/A Snow Light Snow
9:15 PM 27.1 °F 15.4 °F 26.1 °F 96% 29.87 in 2.5 mi SE 15.0 mph - N/A   Overcast
9:35 PM 27.5 °F 16.3 °F 26.6 °F 96% 29.86 in 2.5 mi SE 13.8 mph - N/A   Overcast
9:55 PM 27.7 °F 17.6 °F 27.3 °F 99% 29.86 in 2.0 mi SE 11.5 mph - N/A   Overcast
10:15 PM 28.0 °F 19.3 °F 27.5 °F 98% 29.85 in 2.0 mi SE 9.2 mph - N/A   Overcast
10:35 PM 28.4 °F 19.7 °F 27.9 °F 98% 29.85 in 2.5 mi SE 9.2 mph - N/A   Overcast
10:55 PM 28.9 °F 20.4 °F 28.4 °F 98% 29.83 in 2.0 mi SE 9.2 mph - N/A   Overcast
11:15 PM 29.1 °F 21.3 °F 28.4 °F 97% 29.84 in 3.0 mi SE 8.1 mph - N/A   Overcast
11:35 PM 29.3 °F 21.5 °F 28.9 °F 99% 29.83 in 2.0 mi SE 8.1 mph - N/A   Overcast
11:55 PM 29.7 °F 22.8 °F 29.3 °F 99% 29.82 in 2.5 mi SE 6.9 mph - N/A   Overcast